Location: Anselfingen
(47.8449°N, 8.7635°E)
Time: 22:55:21
(UTC+00:00)

Daily predictions for brighter satellites

Satellite Brightness Start Highest point End
(mag) Time Altitude Azimuth Time Altitude Azimuth Time Altitude Azimuth
H-2A R/B 4.4 19:54:30 10° SW 19:58:33 23° W 20:02:43 10° NW
STARLINK-1212 3.2 19:58:41 10° WNW 20:01:48 64° NNE 20:04:56 10° ESE
Cosmos 1943 Rocket 2.3 19:56:33 10° S 20:01:54 52° ESE 20:07:22 10° NE
STARLINK-1105 3.2 19:59:18 10° WNW 20:02:28 65° NNE 20:05:37 10° ESE
STARLINK-1247 3.2 20:00:23 10° WNW 20:03:35 66° NNE 20:06:46 10° ESE
STARLINK-1227 3.2 20:01:01 10° WNW 20:04:11 66° NNE 20:07:21 10° ESE
STARLINK-1226 3.2 20:02:10 10° WNW 20:05:20 67° NNE 20:08:30 10° ESE
STARLINK-1215 3.2 20:03:12 10° WNW 20:06:24 68° NNE 20:09:36 10° ESE
NOSS 2-2 (C) 3.4 20:04:38 10° SW 20:08:12 75° NW 20:12:16 10° NE
STARLINK-1217 3.1 20:05:28 10° WNW 20:08:40 71° NNE 20:11:52 10° ESE
STARLINK-1229 3.1 20:06:34 10° WNW 20:09:46 72° NNE 20:12:58 10° ESE
STARLINK-1270 3.1 20:07:40 10° WNW 20:10:52 73° NNE 20:14:03 10° ESE
STARLINK-1189 3.0 20:10:01 10° WNW 20:13:15 76° NNE 20:16:27 10° ESE
NOSS 3-2 (A) 4.2 20:06:47 10° NW 20:14:17 80° SW 20:22:44 10° SSE
STARLINK-1188 3.0 20:11:15 10° WNW 20:14:28 77° NNE 20:17:40 10° ESE
ATLAS 2AS CENTAUR R/B 3.5 20:07:16 10° S 20:14:29 40° ESE 20:21:43 10° NE
SL-4 R/B 2.4 20:10:12 10° SW 20:14:50 64° SSE 20:19:38 10° ENE
STARLINK-1191 3.0 20:13:51 10° WNW 20:17:03 80° NNE 20:20:15 10° ESE
STARLINK-1221 3.0 20:15:05 10° WNW 20:18:18 81° NNE 20:21:29 10° ESE
STARLINK-1211 4.5 20:14:56 10° WNW 20:18:59 48° NNE 20:23:00 10° E
STARLINK-1222 2.9 20:16:16 10° WNW 20:19:29 83° NNE 20:22:37 10° ESE
STARLINK-1214 3.0 20:17:31 10° WNW 20:20:45 84° NNE 20:23:52 11° ESE
Landsat 7 3.9 20:16:13 10° SSE 20:20:57 70° ENE 20:25:42 10° N
Cosmos 1242 Rocket 4.0 20:18:27 11° SE 20:21:15 23° E 20:24:12 10° NE
ERS-1 Rocket 3.5 20:19:09 10° SE 20:23:56 48° ENE 20:28:46 10° N
STARLINK-1245 4.4 20:19:54 10° WNW 20:23:58 50° NNE 20:28:00 10° E
STARLINK-29 3.1 20:20:50 10° SW 20:23:58 51° SE 20:27:07 10° ENE
Cosmos 1437 Rocket 4.4 20:20:37 10° SW 20:24:08 35° WNW 20:27:42 10° N
Okean 1 Rocket 3.5 20:20:56 10° NNW 20:25:20 62° W 20:29:40 10° S
Cosmos 1455 Rocket 3.7 20:21:40 10° N 20:25:47 41° ENE 20:29:27 12° SE
STARLINK-1233 4.4 20:24:54 10° WNW 20:28:57 52° NNE 20:33:01 10° E
USA 238 DEB 4.1 20:22:10 10° NW 20:29:19 68° SW 20:36:27 11° SSE
USA 238 4.1 20:22:16 10° NW 20:29:26 68° SW 20:36:34 11° SSE
STARLINK-1209 3.3 20:27:43 10° WNW 20:31:14 66° SSW 20:34:08 14° SE
Cosmos 968 Rocket 3.7 20:28:27 10° NNW 20:33:33 57° ENE 20:37:57 13° SE
IGS 5A 3.5 20:29:44 10° SSE 20:33:53 88° WSW 20:38:04 10° NNW
STARLINK-1204 4.3 20:29:52 10° WNW 20:33:57 54° NNE 20:38:01 10° E
Cosmos 2026 Rocket 4.3 20:28:01 10° SSE 20:34:04 52° E 20:40:14 10° NNE
ATLAS CENTAUR R/B 2.2 20:30:36 10° S 20:34:30 31° ESE 20:38:12 10° NE
MetOp-B 4.5 20:29:16 10° S 20:34:34 66° WSW 20:39:55 10° NNW
Okean 2 3.4 20:31:31 10° S 20:35:37 65° E 20:39:45 10° NNE
Cosmos 2369 Rocket 2.2 20:31:37 10° SSW 20:37:14 71° ESE 20:42:53 10° NNE
CARTOSAT-1 3.8 20:34:06 13° SSE 20:37:48 55° ENE 20:42:02 10° N
STARLINK-1238 4.2 20:34:52 10° WNW 20:38:58 56° NNE 20:43:02 10° E
Cosmos 1867 3.8 20:33:59 10° NW 20:39:27 67° NE 20:44:11 14° SE
STARLINK-1320 4.1 20:37:16 10° SSW 20:39:46 22° SE 20:42:15 10° E
STARLINK-1322 4.1 20:37:37 10° SSW 20:40:07 22° SE 20:42:37 10° E
STARLINK-1324 4.0 20:37:55 10° SSW 20:40:25 22° SE 20:42:57 10° E
STARLINK-1294 4.0 20:38:15 10° SSW 20:40:45 22° SE 20:43:15 10° E
STARLINK-1261 4.0 20:38:36 10° SSW 20:41:07 23° SE 20:43:38 10° E
STARLINK-1187 3.1 20:38:06 10° WNW 20:41:26 63° SSW 20:43:50 17° SE
STARLINK-1325 4.0 20:38:56 10° SSW 20:41:27 23° SE 20:44:00 10° E
STARLINK-1333 4.0 20:39:18 10° SSW 20:41:50 23° SE 20:44:23 10° E
STARLINK-1334 4.0 20:39:34 10° SSW 20:42:07 23° SE 20:44:39 10° E
Cosmos 1766 3.5 20:38:26 10° NNW 20:42:25 69° W 20:46:20 10° S
STARLINK-1326 4.0 20:39:54 10° SSW 20:42:26 23° SE 20:44:59 10° E
STARLINK-1323 4.0 20:40:15 10° SSW 20:42:49 23° SE 20:45:22 10° E
STARLINK-1349 4.0 20:40:32 10° SSW 20:43:06 23° SE 20:45:40 10° E
STARLINK-1336 4.0 20:40:52 10° SSW 20:43:26 24° SE 20:46:00 10° E
STARLINK-1331 4.0 20:41:14 10° SSW 20:43:49 24° SE 20:46:23 10° E
STARLINK-1201 4.1 20:39:51 10° WNW 20:43:57 59° NNE 20:48:03 10° E
STARLINK-1344 4.0 20:41:32 10° SSW 20:44:07 24° SE 20:46:42 10° E
STARLINK-1343 3.9 20:41:54 10° SSW 20:44:29 24° SE 20:47:05 10° E
STARLINK-1346 3.9 20:42:11 10° SSW 20:44:47 24° SE 20:47:24 10° E
STARLINK-1328 3.9 20:42:36 10° SSW 20:45:12 24° SE 20:47:48 10° E
STARLINK-1234 3.5 20:41:47 10° WNW 20:45:18 55° SW 20:47:47 18° SE
STARLINK-1354 3.9 20:42:53 10° SSW 20:45:29 24° SE 20:48:06 10° E
STARLINK-1347 3.9 20:43:10 10° SSW 20:45:46 25° SE 20:48:23 10° E
STARLINK-1357 3.9 20:43:35 10° SSW 20:46:12 25° SE 20:48:49 10° E
STARLINK-1335 3.9 20:43:52 10° SSW 20:46:29 25° SE 20:49:07 10° E
STARLINK-1327 3.9 20:44:13 10° SSW 20:46:50 25° SE 20:49:28 10° E
STARLINK-1340 3.9 20:44:30 10° SSW 20:47:08 25° SE 20:49:47 10° E
STARLINK-1356 3.9 20:44:52 10° SSW 20:47:31 25° SE 20:50:09 10° E
STARLINK-1345 3.9 20:45:11 10° SSW 20:47:49 25° SE 20:50:29 10° E
STARLINK-1355 3.9 20:45:31 10° SSW 20:48:10 26° SE 20:50:50 10° E
STARLINK-1321 3.8 20:45:52 10° SSW 20:48:31 26° SE 20:51:10 10° E
STARLINK-1358 3.8 20:46:14 10° SSW 20:48:54 26° SE 20:51:34 10° E
STARLINK-1206 4.0 20:44:48 10° WNW 20:48:55 61° NNE 20:53:01 10° ESE
STARLINK-1332 3.8 20:46:31 10° SSW 20:49:11 26° SE 20:51:52 10° E
STARLINK-1348 3.8 20:46:51 10° SSW 20:49:31 26° SE 20:52:11 10° E
STARLINK-1330 3.8 20:47:10 10° SSW 20:49:51 26° SE 20:52:32 10° E
STARLINK-1363 3.8 20:47:29 10° SSW 20:50:10 27° SE 20:52:52 10° E
Nadezhda 4 Rocket 4.5 20:44:15 10° SSW 20:50:17 61° WNW 20:56:22 10° N
STARLINK-1337 3.8 20:47:51 10° SSW 20:50:33 27° SE 20:53:15 10° E
STARLINK-1228 3.6 20:47:03 10° WNW 20:50:37 51° SW 20:53:01 19° SE
STARLINK-1338 4.4 20:47:26 10° SSW 20:50:47 26° SE 20:54:08 10° E
STARLINK-1342 3.8 20:48:10 10° SSW 20:50:52 27° SE 20:53:34 10° E
STARLINK-1364 3.8 20:48:30 10° SSW 20:51:12 27° SE 20:53:55 10° E
STARLINK-1376 3.8 20:48:50 10° SSW 20:51:32 27° SE 20:54:15 10° E
STARLINK-1360 3.8 20:49:10 10° SSW 20:51:52 27° SE 20:54:36 10° E
STARLINK-1361 3.7 20:49:31 10° SSW 20:52:13 28° SE 20:54:57 10° E
STARLINK-1367 3.7 20:49:47 10° SSW 20:52:30 28° SE 20:55:15 10° E
STARLINK-1366 3.7 20:50:09 10° SSW 20:52:52 28° SE 20:55:36 10° E
STARLINK-1205 4.0 20:49:47 10° WNW 20:53:55 64° NNE 20:57:54 11° ESE
Resurs 01 Rocket 3.6 20:50:26 10° SSW 20:54:03 24° W 20:57:41 10° NW
USA 245 3.7 20:52:38 11° SSW 20:54:45 29° W 20:56:52 10° NW
STARLINK-1218 3.9 20:54:46 10° WNW 20:58:55 67° NNE 21:02:42 12° ESE
STARLINK-1371 4.3 20:55:40 10° SSW 20:59:09 30° SE 21:02:38 10° ENE
STARLINK-52 2.8 20:56:04 10° WSW 20:59:16 85° SSE 21:02:30 10° ENE
SPOT 5 3.1 20:57:53 15° SSE 21:02:17 87° ENE 21:07:42 10° NNW
Spot 2 Rocket 4.4 20:58:00 10° S 21:02:48 44° W 21:07:39 10° NNW
Cosmos 1544 Rocket 3.5 20:59:00 10° N 21:03:22 72° E 21:06:25 19° SSE
STARLINK-1341 4.2 20:59:51 10° SSW 21:03:25 32° SE 21:07:01 10° ENE
STARLINK-1254 3.8 20:59:45 10° WNW 21:03:54 71° NNE 21:07:29 14° ESE
CENTAUR R/B 3.3 20:55:59 10° NW 21:04:01 73° SW 21:11:10 17° SSE
BREEZE-M DEB 2.7 21:03:05 10° WSW 21:05:37 74° SSE 21:12:09 10° ENE
Terra 1.9 21:02:43 18° SSE 21:06:13 70° ENE 21:10:58 10° N
STARLINK-1374 4.1 21:04:02 10° SSW 21:07:39 34° SE 21:11:18 10° ENE
STARLINK-1231 3.7 21:04:44 10° WNW 21:08:53 75° NNE 21:12:16 15° ESE
STARLINK-1339 4.0 21:08:15 10° SSW 21:11:56 37° SE 21:15:39 10° ENE
ATLAS 3B R/B 2.8 21:05:42 10° NW 21:12:30 74° NE 21:18:06 17° SE
Cosmos 1726 3.3 21:09:33 10° N 21:12:55 31° ENE 21:14:42 21° ESE
Cosmos 1655 Rocket 4.4 21:09:11 18° SSE 21:13:33 46° E 21:19:30 10° NNE
STARLINK-1232 3.7 21:09:44 10° WNW 21:13:54 79° NNE 21:17:04 17° ESE
STARLINK-1377 3.9 21:12:29 10° SSW 21:16:13 39° SE 21:19:58 10° ENE
Cosmos 1503 Rocket 4.0 21:12:35 10° NNW 21:17:57 87° WSW 21:21:37 21° SSE
STARLINK-1208 3.6 21:14:43 10° WNW 21:18:52 83° NNE 21:21:51 19° ESE
STARLINK-1444 3.8 21:17:25 10° W 21:19:24 33° NNW 21:21:24 10° NE
APEX 4.4 21:13:33 10° SW 21:19:47 71° WNW 21:24:47 10° NNE
STARLINK-1452 3.8 21:18:04 10° W 21:20:02 33° NNW 21:22:01 10° NE
STARLINK-1353 3.8 21:16:43 10° SSW 21:20:30 42° SE 21:24:18 10° ENE
Cosmos 1470 2.7 21:16:57 10° N 21:20:50 82° W 21:23:07 23° S
STARLINK-1392 3.8 21:19:00 10° W 21:20:54 32° NNW 21:22:50 10° NE
STARLINK-1399 3.8 21:19:01 10° W 21:20:56 32° NNW 21:22:52 10° NE
STARLINK-1393 3.8 21:19:04 10° W 21:20:58 32° NNW 21:22:53 10° NE
STARLINK-1394 3.8 21:19:06 10° W 21:20:59 32° NNW 21:22:55 10° NE
STARLINK-1397 3.8 21:19:08 10° W 21:21:02 32° NNW 21:22:58 10° NE
STARLINK-1395 3.8 21:19:10 10° W 21:21:02 31° NNW 21:22:56 10° NE
STARLINK-1396 3.8 21:19:09 10° W 21:21:02 32° NNW 21:22:58 10° NE
STARLINK-1414 3.8 21:19:10 10° W 21:21:03 32° NNW 21:22:58 10° NE
STARLINK-1408 3.8 21:19:13 10° W 21:21:06 32° NNW 21:23:01 10° NE
STARLINK-1404 3.8 21:19:13 10° W 21:21:07 32° NNW 21:23:03 10° NE
STARLINK-1416 3.8 21:19:14 10° W 21:21:07 32° NNW 21:23:03 10° NE
STARLINK-1415 3.8 21:19:14 10° W 21:21:08 32° NNW 21:23:05 10° NE
STARLINK-1450 3.8 21:19:15 10° W 21:21:10 32° NNW 21:23:06 10° NE
STARLINK-1406 3.8 21:19:19 10° W 21:21:11 31° NNW 21:23:06 10° NE
STARLINK-1401 3.8 21:19:17 10° W 21:21:11 32° NNW 21:23:08 10° NE
STARLINK-1417 3.8 21:19:20 10° W 21:21:15 32° NNW 21:23:12 10° NE
STARLINK-1402 3.8 21:19:21 10° W 21:21:16 32° NNW 21:23:13 10° NE
STARLINK-1413 3.8 21:19:22 10° W 21:21:16 32° NNW 21:23:13 10° NE
STARLINK-1419 3.8 21:19:22 10° W 21:21:16 32° NNW 21:23:12 10° NE
STARLINK-1422 3.8 21:19:27 10° W 21:21:22 32° NNW 21:23:18 10° NE
STARLINK-1453 3.8 21:19:27 10° W 21:21:22 32° NNW 21:23:20 10° NE
STARLINK-1398 3.8 21:19:27 10° W 21:21:24 32° NNW 21:23:22 10° NE
STARLINK-1420 3.8 21:19:30 10° W 21:21:25 32° NNW 21:23:22 10° NE
STARLINK-1440 3.8 21:19:31 10° W 21:21:25 32° NNW 21:23:23 10° NE
STARLINK-1436 (VISORSAT) 3.8 21:19:30 10° W 21:21:26 32° NNW 21:23:24 10° NE
STARLINK-1460 3.8 21:19:33 10° W 21:21:28 32° NNW 21:23:25 10° NE
STARLINK-1410 3.8 21:19:38 10° W 21:21:32 32° NNW 21:23:29 10° NE
STARLINK-1423 3.8 21:19:39 10° W 21:21:33 31° NNW 21:23:29 10° NE
STARLINK-1421 3.8 21:19:39 10° W 21:21:33 31° NNW 21:23:29 10° NE
STARLINK-1400 3.8 21:19:38 10° W 21:21:33 32° NNW 21:23:30 10° NE
STARLINK-1454 3.8 21:19:39 10° W 21:21:34 32° NNW 21:23:31 10° NE
STARLINK-1458 3.8 21:19:42 10° W 21:21:36 32° NNW 21:23:32 10° NE
STARLINK-1445 3.8 21:19:44 10° W 21:21:38 32° NNW 21:23:36 10° NE
STARLINK-1446 3.8 21:19:45 10° W 21:21:40 32° NNW 21:23:38 10° NE
STARLINK-1407 3.8 21:19:45 10° W 21:21:41 32° NNW 21:23:38 10° NE
STARLINK-1405 3.8 21:19:50 10° W 21:21:42 31° NNW 21:23:36 10° NE
STARLINK-1370 3.8 21:19:48 10° W 21:21:43 32° NNW 21:23:41 10° NE
STARLINK-1456 3.8 21:19:49 10° W 21:21:44 31° NNW 21:23:40 10° NE
STARLINK-1457 3.8 21:19:49 10° W 21:21:44 32° NNW 21:23:41 10° NE
STARLINK-1451 3.8 21:19:50 10° W 21:21:44 31° NNW 21:23:41 10° NE
STARLINK-1409 3.8 21:19:50 10° W 21:21:45 32° NNW 21:23:42 10° NE
STARLINK-1439 3.8 21:19:53 10° W 21:21:45 31° NNW 21:23:40 10° NE
STARLINK-1437 3.8 21:19:51 10° W 21:21:45 32° NNW 21:23:42 10° NE
STARLINK-1447 3.8 21:19:50 10° W 21:21:45 32° NNW 21:23:43 10° NE
STARLINK-1455 3.8 21:19:50 10° W 21:21:45 32° NNW 21:23:43 10° NE
STARLINK-1441 3.8 21:19:52 10° W 21:21:47 32° NNW 21:23:44 10° NE
STARLINK-1443 3.8 21:19:54 10° W 21:21:50 32° NNW 21:23:47 10° NE
STARLINK-1351 3.8 21:19:57 10° W 21:21:52 32° NNW 21:23:49 10° NE
STARLINK-1418 3.8 21:19:57 10° W 21:21:52 32° NNW 21:23:49 10° NE
STARLINK-1442 3.8 21:19:58 10° W 21:21:53 32° NNW 21:23:49 10° NE
STARLINK-1403 3.8 21:19:57 10° W 21:21:53 32° NNW 21:23:50 10° NE
STARLINK-1434 3.8 21:19:57 10° W 21:21:53 32° NNW 21:23:50 10° NE
STARLINK-1448 3.8 21:20:00 10° W 21:21:54 32° NNW 21:23:51 10° NE
STARLINK-1433 3.8 21:20:01 10° W 21:21:56 32° NNW 21:23:53 10° NE
STARLINK-1449 3.8 21:20:02 10° W 21:21:57 32° NNW 21:23:54 10° NE
STARLINK-1438 3.8 21:20:06 10° W 21:22:00 31° NNW 21:23:56 10° NE
STARLINK-1411 3.8 21:20:13 10° W 21:22:07 31° NNW 21:24:04 10° NE
STARLINK-1412 3.8 21:20:12 10° W 21:22:07 32° NNW 21:24:04 10° NE
Meteor 2-10 4.1 21:17:37 10° N 21:22:37 60° ENE 21:25:45 23° SSE
OE (NEXTSAT) 4.3 21:19:17 10° W 21:22:46 65° S 21:25:23 17° E
BREEZE-M DEB (TANK) 3.7 21:07:12 10° WSW 21:22:56 89° SSE 21:26:53 10° ENE
STARLINK-1271 3.6 21:19:41 10° WNW 21:23:51 88° NNE 21:26:37 20° ESE
STARLINK-1375 3.7 21:21:00 10° SW 21:24:49 45° SE 21:28:40 10° ENE
BREEZE-M DEB (TANK) 3.6 21:17:56 10° SSW 21:25:40 31° SSE 21:28:56 10° E
FALCON 9 DEB 3.0 21:22:25 10° WSW 21:25:51 89° ESE 21:29:17 10° ENE
SeaSat 1 4.1 21:24:09 10° ENE 21:27:04 16° ESE 21:27:49 15° ESE
STARLINK-60 4.4 21:24:29 10° W 21:27:30 39° NNW 21:30:32 10° ENE
BREEZE-M DEB (TANK) 3.0 21:23:53 10° WNW 21:27:54 75° N 21:31:40 10° E
STARLINK-1154 3.5 21:24:38 10° WNW 21:28:49 88° SSW 21:31:22 23° ESE
Cosmos 1174 3.3 21:26:27 16° SSW 21:28:55 75° ESE 21:32:45 10° NE
STARLINK-1350 3.7 21:25:16 10° SW 21:29:07 48° SE 21:33:00 10° ENE
STARLINK-1235 4.5 21:26:19 10° W 21:29:15 26° SW 21:30:07 23° SSW
Cosmos 1340 Rocket 3.2 21:26:12 10° N 21:30:13 51° ENE 21:32:10 27° SE
COSMOS 2455 2.8 21:24:31 10° SSW 21:30:28 67° ESE 21:36:28 10° NE
ATLAS 3B CENTAUR R/B 4.5 21:21:12 10° WSW 21:31:25 22° SSW 21:35:20 17° S
Cosmos 1025 Rocket 2.9 21:30:38 22° S 21:33:21 80° E 21:37:41 10° NNE
STARLINK-1352 3.6 21:29:33 10° SW 21:33:27 52° SE 21:37:21 10° ENE
STARLINK-1197 3.5 21:29:38 10° WNW 21:33:48 83° SSW 21:36:10 25° ESE
COSMOS 2487 2.3 21:31:23 10° NNW 21:34:52 90° S 21:36:14 34° SSE
NOSS 3-4 (A) 3.5 21:31:00 10° SW 21:36:57 85° NW 21:43:23 10° NE
NOSS 3-4 (C) 3.4 21:31:05 10° SW 21:37:03 85° NW 21:43:29 10° NE
STARLINK-1212 4.4 21:34:57 10° W 21:37:30 23° SW 21:37:48 23° SSW
STARLINK-1368 3.5 21:33:57 10° SW 21:37:53 56° SE 21:41:49 10° ENE
STARLINK-1105 4.4 21:35:38 10° W 21:38:13 23° SW 21:38:31 22° SSW
STARLINK-1198 3.5 21:34:37 10° WNW 21:38:46 78° SSW 21:40:57 27° SE
STARLINK-1247 4.4 21:36:44 10° W 21:39:20 23° SW 21:39:38 22° SSW
ALOS 2 4.5 21:37:12 13° ESE 21:39:45 21° ENE 21:43:01 10° NNE
STARLINK-1227 4.4 21:37:23 10° W 21:39:57 22° SW 21:40:12 22° SW
Cosmos 1354 Rocket 4.2 21:35:07 10° NNW 21:40:23 65° WSW 21:43:37 24° S
STARLINK-1226 4.5 21:38:33 10° W 21:41:05 22° SW 21:41:19 22° SW
Aureole 3 3.6 21:38:51 10° N 21:41:38 33° ENE 21:42:17 29° ESE
MTI 3.7 21:39:07 10° N 21:42:15 77° WNW 21:43:39 30° SSW
STARLINK-1369 3.5 21:38:19 10° SW 21:42:16 59° SSE 21:46:14 10° ENE
STARLINK-1199 3.5 21:39:35 10° WNW 21:43:44 73° SSW 21:45:43 29° SE
ATLAS 5 CENTAUR R/B 1.7 21:38:38 10° SSW 21:44:03 53° SE 21:46:25 10° ENE
RESURS DK-1 2.8 21:42:39 31° SSE 21:44:06 43° ESE 21:48:03 10° NE
EXPRESS MD2 4.3 21:40:47 10° W 21:44:36 71° N 21:52:34 10° E
Cosmos 1953 2.2 21:41:37 10° N 21:45:36 83° ENE 21:47:21 33° SSE
Cosmos 1271 Rocket 3.4 21:42:55 16° SSW 21:45:50 54° WNW 21:49:45 10° N
STARLINK-1269 4.4 21:41:52 10° WNW 21:45:55 51° NNE 21:49:58 10° E
Cosmos 1943 Rocket 4.1 21:41:02 10° WSW 21:45:56 31° NW 21:50:55 10° NNE
Cosmos 2297 Rocket 3.7 21:41:34 10° NNW 21:46:29 29° NE 21:51:12 11° ESE
CZ-4C R/B 4.1 21:46:27 10° ESE 21:46:34 10° ESE 21:47:30 10° E
STARLINK-1372 3.4 21:42:39 10° SW 21:46:37 64° SSE 21:50:37 10° ENE
Cosmos 1626 4.4 21:46:19 12° E 21:46:52 12° E 21:48:29 10° ENE
Cosmos 1992 Rocket 4.4 21:42:54 10° SW 21:48:03 63° WNW 21:53:15 10° NNE
STARLINK-1210 3.6 21:44:35 10° WNW 21:48:42 68° SSW 21:50:30 32° SE
Lacrosse 4 Rocket 4.0 21:47:35 10° N 21:50:15 16° NE 21:52:51 10° ENE
Cosmos 2219 4.3 21:45:15 10° NNW 21:50:27 36° NE 21:54:40 14° ESE
STARLINK-1200 4.3 21:46:50 10° WNW 21:50:54 53° NNE 21:54:57 10° E
STARLINK-1378 3.4 21:47:04 10° SW 21:51:04 68° SSE 21:55:04 10° ENE
Cosmos 2228 3.8 21:48:19 10° N 21:52:19 38° ENE 21:54:03 26° ESE
Spot 4 4.3 21:50:03 26° SE 21:52:36 52° ENE 21:57:18 10° N
Cosmos 921 Rocket 4.2 21:52:47 23° ESE 21:53:39 25° E 21:57:15 10° NE
STARLINK-1219 3.6 21:49:36 10° WNW 21:53:42 63° SSW 21:55:19 34° SE
SL-4 R/B 3.0 21:49:58 10° W 21:54:43 60° N 21:59:32 10° ENE
STARLINK-1379 3.4 21:51:31 10° SW 21:55:31 72° SSE 21:59:32 10° ENE
STARLINK-1192 4.2 21:51:51 10° WNW 21:55:56 55° NNE 21:59:45 12° E
Cosmos 1242 Rocket 4.5 21:52:50 10° SW 21:56:01 27° WNW 21:59:13 10° N
Cosmos 1707 3.3 21:55:20 21° SSW 21:57:44 54° WNW 22:01:33 10° N
STARLINK-1211 3.7 21:54:35 10° WNW 21:58:40 59° SW 22:00:05 36° SSE
STARLINK-1329 3.4 21:55:14 10° SW 21:59:16 76° SSE 22:03:18 10° ENE
STARLINK-29 4.4 21:57:06 10° W 22:00:11 40° NNW 22:03:15 10° ENE
STARLINK-1244 4.2 21:56:48 10° WNW 22:00:54 58° NNE 22:04:30 13° E
SL-4 R/B 3.1 22:03:43 14° ENE 22:03:43 14° ENE 22:04:43 10° NNE
STARLINK-1245 3.8 21:59:33 10° WNW 22:03:37 55° SW 22:04:51 38° SSE
STARLINK-1362 3.4 21:59:43 10° WSW 22:03:46 81° SSE 22:07:49 10° ENE
EO 1 Del DPAF 3.4 22:00:10 10° NNE 22:03:54 56° E 22:04:56 40° SSE
Cosmos 1656 Rocket 4.4 21:59:18 10° SW 22:04:47 52° WNW 22:10:12 10° NNE
ATLAS 2AS CENTAUR R/B 3.5 21:57:17 10° SW 22:05:14 65° NW 22:13:06 10° NE
STARLINK-1138 4.1 22:01:46 10° WNW 22:05:53 60° NNE 22:09:16 15° E
Meteor 2-15 4.4 21:59:51 10° N 22:06:01 83° E 22:09:27 28° SSE
Timation 2 Rocket 3.9 21:59:57 10° NNW 22:06:16 83° ENE 22:09:46 27° SSE
STARLINK-1373 3.4 22:04:15 10° WSW 22:08:18 85° SSE 22:12:21 10° ENE
STARLINK-1233 3.9 22:04:33 10° WNW 22:08:35 51° SW 22:09:38 39° S
STARLINK-1143 4.0 22:06:46 10° WNW 22:10:53 63° NNE 22:14:04 16° E
Cosmos 1726 Rocket 3.9 22:08:21 10° N 22:12:36 51° ENE 22:14:12 33° SE
STARLINK-1390 3.5 22:08:47 10° WSW 22:12:50 90° SSE 22:16:54 10° ENE
Meteor 1-16 Rocket 4.2 22:07:29 10° NNW 22:12:56 73° W 22:15:41 29° S
ATLAS CENTAUR R/B 2.9 22:09:20 10° WSW 22:13:22 37° NW 22:17:10 10° NNE
STARLINK-1204 4.0 22:09:32 10° WNW 22:13:32 47° SW 22:14:24 40° S
BREEZE-M R/B 4.2 22:04:23 10° SW 22:14:19 53° SSE 22:18:59 10° ENE
STARLINK-1320 3.2 22:12:15 10° WSW 22:15:21 65° NNW 22:18:28 10° ENE
STARLINK-1322 3.2 22:12:36 10° WSW 22:15:42 65° NNW 22:18:49 10° ENE
Cosmos 1892 Rocket 4.3 22:14:31 31° SE 22:15:45 38° E 22:19:47 10° NNE
STARLINK-1241 3.9 22:11:46 10° WNW 22:15:54 66° NNE 22:18:51 18° ESE
STARLINK-1324 3.2 22:12:55 10° WSW 22:16:01 64° NNW 22:19:07 10° ENE
STARLINK-1294 3.2 22:13:13 10° WSW 22:16:19 64° NNW 22:19:26 10° ENE
STARLINK-1261 3.2 22:13:36 10° WSW 22:16:42 64° NNW 22:19:49 10° ENE
Cosmos 2098 Rocket 4.4 22:12:13 26° S 22:16:47 72° E 22:24:06 10° NNE
STARLINK-1325 3.3 22:13:57 10° WSW 22:17:03 64° NNW 22:20:10 10° ENE
STARLINK-1333 3.3 22:14:20 10° WSW 22:17:25 63° NNW 22:20:32 10° ENE
STARLINK-1334 3.3 22:14:37 10° WSW 22:17:43 63° NNW 22:20:49 10° ENE
STARLINK-1326 3.3 22:14:57 10° WSW 22:18:02 63° NNW 22:21:08 10° ENE
S3M 4.5 22:12:12 10° NNW 22:18:13 54° W 22:22:10 22° SSW
STARLINK-1323 3.3 22:15:19 10° WSW 22:18:25 62° NNW 22:21:32 10° ENE
STARLINK-1238 4.0 22:14:33 10° WNW 22:18:30 43° SW 22:19:12 39° S
STARLINK-1365 3.6 22:14:33 10° WSW 22:18:39 84° NNW 22:22:47 10° ENE
STARLINK-1349 3.3 22:15:37 10° WSW 22:18:43 62° NNW 22:21:49 10° ENE
STARLINK-1336 3.3 22:15:57 10° WSW 22:19:02 62° NNW 22:22:08 10° ENE
STARLINK-1331 3.3 22:16:19 10° WSW 22:19:25 61° NNW 22:22:32 10° ENE
STARLINK-1344 3.3 22:16:38 10° WSW 22:19:44 61° NNW 22:22:50 10° ENE
SJ 16-02 3.1 22:16:13 10° N 22:19:56 25° ENE 22:22:33 15° ESE
STARLINK-1343 3.3 22:17:00 10° WSW 22:20:06 61° NNW 22:23:13 10° ENE
STARLINK-1346 3.4 22:17:17 10° WSW 22:20:24 61° NNW 22:23:32 10° ENE
STARLINK-1328 3.4 22:17:44 10° WSW 22:20:49 60° NNW 22:23:55 10° ENE
STARLINK-1239 3.8 22:16:45 10° WNW 22:20:54 70° NNE 22:23:39 20° ESE
STARLINK-1354 3.4 22:18:02 10° WSW 22:21:07 60° NNW 22:24:13 10° ENE
STARLINK-1347 3.4 22:18:18 10° WSW 22:21:24 60° NNW 22:24:30 10° ENE
Cosmos 2369 Rocket 4.4 22:17:13 10° W 22:21:49 25° NW 22:26:25 10° N
STARLINK-1357 3.4 22:18:44 10° WSW 22:21:50 59° NNW 22:24:56 10° ENE
STARLINK-1335 3.4 22:19:02 10° WSW 22:22:07 59° NNW 22:25:13 10° ENE
STARLINK-1327 3.4 22:19:23 10° WSW 22:22:28 59° NNW 22:25:34 10° ENE
STARLINK-1340 3.4 22:19:41 10° WSW 22:22:46 59° NNW 22:25:52 10° ENE
STARLINK-1356 3.4 22:20:04 10° WSW 22:23:09 58° NNW 22:26:14 10° ENE
Cosmos 2315 Rocket 3.9 22:16:57 10° N 22:23:12 87° E 22:26:32 30° S
STARLINK-1345 3.4 22:20:23 10° WSW 22:23:28 58° NNW 22:26:34 10° ENE
STARLINK-1201 4.1 22:19:34 10° WNW 22:23:28 40° SW 22:23:59 38° SSW
STARLINK-1355 3.4 22:20:44 10° WSW 22:23:50 58° NNW 22:26:55 10° ENE
STARLINK-1321 3.5 22:21:05 10° WSW 22:24:10 58° NNW 22:27:16 10° ENE
BREEZE-M DEB (TANK) 4.4 22:19:58 10° WSW 22:24:14 90° NNW 22:41:29 10° ENE
STARLINK-1358 3.5 22:21:28 10° WSW 22:24:33 57° NNW 22:27:38 10° ENE
Cosmos 2227 Rocket 3.0 22:19:06 10° NNW 22:24:33 44° NE 22:28:23 19° ESE
STARLINK-1332 3.5 22:21:45 10° WSW 22:24:50 57° NNW 22:27:56 10° ENE
STARLINK-1348 3.5 22:22:06 10° WSW 22:25:10 57° NNW 22:28:16 10° ENE
STARLINK-1330 3.5 22:22:26 10° WSW 22:25:31 57° NNW 22:28:36 10° ENE
STARLINK-1363 3.5 22:22:46 10° WSW 22:25:50 56° NNW 22:28:55 10° ENE
STARLINK-1240 3.7 22:21:41 10° WNW 22:25:51 73° NNE 22:28:23 22° ESE
STARLINK-1337 3.5 22:23:09 10° WSW 22:26:12 56° NNW 22:29:18 10° ENE
STARLINK-1342 3.5 22:23:27 10° WSW 22:26:32 56° NNW 22:29:37 10° ENE
STARLINK-1364 3.5 22:23:48 10° WSW 22:26:53 56° NNW 22:29:58 10° ENE
STARLINK-1376 3.5 22:24:08 10° W 22:27:12 55° NNW 22:30:17 10° ENE
STARLINK-1360 3.5 22:24:29 10° W 22:27:33 55° NNW 22:30:39 10° ENE
STARLINK-1361 3.6 22:24:49 10° W 22:27:54 55° NNW 22:30:58 10° ENE
STARLINK-1367 3.6 22:25:06 10° W 22:28:11 55° NNW 22:31:18 10° ENE
STARLINK-1206 4.2 22:24:33 10° WNW 22:28:24 37° SW 22:28:44 36° SSW
Meteor 2-15 Rocket 4.4 22:22:14 10° N 22:28:24 85° W 22:31:36 30° S
STARLINK-1366 3.6 22:25:29 10° W 22:28:33 54° NNW 22:31:38 10° ENE
STARLINK-1338 3.6 22:25:29 10° WSW 22:29:28 74° NNW 22:33:27 10° ENE
STARLINK-1216 3.7 22:26:41 10° WNW 22:30:51 77° NNE 22:33:11 25° ESE
STARLINK-1205 4.3 22:29:33 10° WNW 22:33:21 34° SW 22:33:31 34° SW
Cosmos 1908 3.4 22:31:51 10° NNW 22:35:38 62° W 22:36:36 44° SSW
STARLINK-1237 3.6 22:31:40 10° WNW 22:35:50 82° NNE 22:37:58 28° ESE
SL-14 R/B 3.8 22:36:22 38° ESE 22:37:01 42° E 22:40:40 10° NNE
Cosmos 2084 4.0 22:32:51 10° SW 22:37:14 59° NW 22:41:41 10° NE
Cosmos 1777 Rocket 4.3 22:32:35 10° NNW 22:37:43 55° WSW 22:39:51 33° SSW
STARLINK-1371 3.8 22:33:56 10° WSW 22:37:53 68° NNW 22:41:51 10° ENE
STARLINK-1218 4.5 22:34:35 10° WNW 22:38:18 32° SW 22:38:18 32° SW
STARLINK-1202 3.6 22:36:39 10° WNW 22:40:49 86° NNE 22:42:45 31° ESE
STARLINK-1341 3.9 22:38:16 10° WSW 22:42:14 65° NNW 22:46:13 10° ENE
KORONAS-FOTON 4.1 22:42:06 38° SW 22:43:21 60° WNW 22:47:12 10° N
Terra 4.1 22:41:38 10° SW 22:44:27 16° W 22:47:19 10° NW
STARLINK-1203 3.5 22:41:26 10° WNW 22:45:37 89° SSW 22:47:23 34° ESE
Thor Agena Rocket 4.0 22:41:14 10° N 22:46:25 58° WNW 22:49:40 22° SW
STARLINK-1374 4.0 22:42:33 10° WSW 22:46:32 62° NNW 22:50:30 10° ENE
Cosmos 1726 4.1 22:45:08 10° NW 22:47:57 20° W 22:49:12 17° WSW
Cosmos 1300 2.9 22:44:34 10° N 22:48:21 58° ENE 22:49:12 45° SE
Meteor 2-5 Rocket 3.7 22:46:11 33° S 22:48:51 88° ESE 22:54:34 10° NNE
STARLINK-1246 3.5 22:46:37 10° WNW 22:50:47 84° SSW 22:52:19 38° SE
STARLINK-1339 4.0 22:46:53 10° W 22:50:50 60° NNW 22:54:48 10° ENE
USA 215 3.7 22:44:24 10° ESE 22:50:52 63° NNE 22:57:19 10° NW
Cosmos 1674 3.7 22:53:25 29° WSW 22:54:47 40° WNW 22:58:24 10° N
STARLINK-1377 4.1 22:51:14 10° W 22:55:12 57° NNW 22:59:10 10° ENE
STARLINK-1224 3.5 22:51:35 10° WNW 22:55:44 80° SSW 22:57:05 42° SE
Cosmos 1626 Rocket 4.4 22:57:33 32° SE 22:58:38 37° E 23:02:41 10° NNE
STARLINK-1353 4.2 22:55:35 10° W 22:59:31 55° NNW 23:03:28 10° ENE
STARLINK-1225 3.5 22:56:35 10° WNW 23:00:43 75° SSW 23:01:52 45° SE
ATLAS 3B R/B 3.8 22:57:03 10° WNW 23:02:41 28° WSW 23:05:21 22° SSW
STARLINK-1375 4.3 22:59:58 10° W 23:03:54 53° NNW 23:07:50 10° ENE
SeaSat 1 2.4 23:00:11 10° NNE 23:05:09 85° WNW 23:07:34 31° SW
STARLINK-1230 3.5 23:01:33 10° WNW 23:05:41 70° SSW 23:06:38 49° SSE
FALCON 9 R/B 4.4 23:08:52 17° SE 23:08:52 17° SE 23:12:16 10° ESE
Meteor 2-21 4.5 23:04:49 31° SSW 23:07:58 83° W 23:14:13 10° N
BREEZE M DEB (TANK) 3.9 23:05:57 10° WNW 23:06:46 19° WNW 23:06:46 19° WNW
STARLINK-1350 4.4 23:04:18 10° W 23:08:13 51° NNW 23:12:10 10° ENE
Cosmos 2058 Rocket 3.2 23:04:07 10° NNW 23:08:33 66° W 23:09:53 43° SSW
STARLINK-1243 3.5 23:06:33 10° WNW 23:10:40 65° SSW 23:11:26 52° SSE
Cosmos 1980 Rocket 3.7 23:10:05 18° ESE 23:11:44 21° E 23:15:49 10° NE
STARLINK-1352 4.4 23:08:38 10° W 23:12:33 50° NNW 23:16:28 10° ENE
Helios 1B rocket 3.8 23:09:43 10° NE 23:13:15 26° E 23:14:04 25° ESE
STARLINK-1236 3.6 23:11:32 10° WNW 23:15:37 60° SSW 23:16:12 54° S
ALOS 2 3.1 23:14:35 38° SW 23:15:46 49° W 23:20:03 10° NNW
Cosmos 468 Rocket 4.3 23:14:13 37° SSE 23:15:49 51° ESE 23:20:47 10° NNE
STARLINK-1368 4.5 23:13:10 10° W 23:17:05 48° NNW 23:21:00 10° ENE
Cosmos 1745 Rocket 4.1 23:16:47 32° SSE 23:19:36 63° E 23:25:40 10° NNE
Cosmos 1626 2.6 23:20:51 42° WSW 23:21:40 52° WNW 23:25:19 10° N
ERBS 2.2 23:18:37 10° NW 23:21:58 85° NE 23:22:16 72° ESE
Cosmos 2369 4.3 23:20:09 32° SSE 23:22:02 42° ESE 23:27:19 10° NE
RESURS DK-1 4.5 23:18:56 10° WSW 23:22:19 24° NW 23:25:43 10° N
Cosmos 1455 3.5 23:20:36 10° N 23:23:58 30° ENE 23:25:11 25° ESE
Cosmos 1937 Rocket 3.9 23:18:55 10° NNW 23:24:09 60° ENE 23:27:02 26° SE
Cosmos 1812 Rocket 3.9 23:21:07 10° N 23:25:31 57° ENE 23:27:04 36° SE
STARLINK-1269 3.7 23:21:31 10° WNW 23:25:33 52° SW 23:25:46 51° SSW
STARLINK-43 3.2 23:26:08 63° SSE 23:26:08 63° SSE 23:29:47 10° ENE
Cosmos 2263 Rocket 4.2 23:21:50 10° N 23:26:22 24° NE 23:30:50 10° E
Lacrosse 4 Rocket 1.4 23:25:20 10° NNW 23:29:40 82° ENE 23:31:03 42° SE
Meteor 1-24 Rocket 4.0 23:27:06 29° SW 23:29:45 58° WNW 23:35:15 10° N
STARLINK-1200 3.8 23:26:30 10° WNW 23:30:31 48° SW 23:30:33 48° SW
Cosmos 1656 3.6 23:27:54 33° SSW 23:30:31 88° ESE 23:36:09 10° NNE
Cosmos 2297 Rocket 2.4 23:25:21 10° NW 23:30:54 57° WSW 23:32:59 36° S
Cosmos 921 Rocket 4.2 23:29:32 21° WSW 23:31:46 36° WNW 23:35:51 10° N
Cosmos 1898 Rocket 3.5 23:27:35 10° NNW 23:32:57 88° WSW 23:35:13 36° SSE
CZ-4C R/B 2.0 23:31:35 37° SSW 23:33:35 70° SE 23:39:34 10° NE
Cosmos 2219 3.7 23:29:23 10° NW 23:34:43 44° WSW 23:36:34 33° SSW
SL-4 R/B 3.0 23:30:08 10° WNW 23:34:56 59° N 23:39:41 10° E
STARLINK-1192 3.9 23:31:31 10° WNW 23:35:20 44° SW 23:35:20 44° SW
Cosmos 1602 Rocket 3.5 23:35:23 46° SSE 23:36:32 71° E 23:40:53 10° NNE
STARLINK-28 4.2 23:39:11 30° E 23:39:11 30° E 23:41:10 10° ENE
STARLINK-1244 4.1 23:36:30 10° WNW 23:40:06 40° SW 23:40:06 40° SW
Cosmos 990 Rocket 4.0 23:37:21 10° NNW 23:42:36 71° WSW 23:44:35 38° S
PSLV R/B 3.9 23:38:17 10° NNE 23:42:39 55° E 23:43:52 40° SSE
Cosmos 1386 Rocket 4.4 23:39:47 33° S 23:42:44 85° E 23:49:01 10° N
ATLAS CENTAUR R/B 1.9 23:41:53 10° WNW 23:43:35 41° W 23:43:35 41° W
STARLINK-1138 4.3 23:41:30 10° WNW 23:44:52 37° WSW 23:44:52 37° WSW
Cosmos 2082 3.6 23:39:45 10° NNW 23:45:26 83° WSW 23:48:10 32° SSE
Helios 1A 3.7 23:47:33 35° SW 23:48:24 39° W 23:52:21 10° NNW
STARLINK-33 4.1 23:49:37 32° E 23:49:37 32° E 23:51:37 10° ENE
STARLINK-1284 4.4 23:49:24 30° ESE 23:49:24 30° ESE 23:52:08 10° ENE
STARLINK-1143 4.5 23:46:32 10° WNW 23:49:40 33° WSW 23:49:40 33° WSW
STARLINK-26 3.5 23:51:18 48° ESE 23:51:18 48° ESE 23:54:14 10° ENE
Cosmos 858 Rocket 4.4 23:46:12 10° NNW 23:51:31 84° WSW 23:53:53 34° SSE
EO 1 Delta rocket 4.3 23:46:42 10° N 23:51:51 55° WNW 23:53:51 32° SW
STARLINK-1258 4.3 23:52:43 32° ESE 23:52:43 32° ESE 23:55:34 10° ENE
Meteor 2-1 Rocket 4.2 23:47:36 10° NNW 23:53:09 75° W 23:55:37 35° S
STARLINK-1292 4.2 23:56:00 35° ESE 23:56:00 35° ESE 23:59:02 10° ENE
